EW5058 Weather Reports


time (UTC)temp
F
wind
direction
speed
knots
gust
knots
rain 1hr
in
rain 24hr
in
rain mn
in
humidity
%
barometer
mb
20260507065818 59 315 6.1 7.8 0.02 0.08 0.04 94 1009.0
20260507064819 60 338 6.1 9.6 0.02 0.08 0.04 94 1008.7
20260507063819 60 338 7.0 9.6 0.04 0.08 0.04 94 1008.8
20260507062839 60 338 5.2 7.8 0.04 0.08 0.04 93 1008.9
20260507061819 60 338 7.0 9.6 0.04 0.08 0.04 93 1009.0
20260507060818 61 338 4.3 7.8 0.04 0.08 0.04 93 1008.8
20260507055818 62 338 6.1 8.7 0.02 0.06 0.02 92 1009.4
20260507054819 62 338 6.1 7.8 0.02 0.06 0.02 91 1009.1
20260507053839 63 338 7.0 9.6 0.00 0.04 0.00 90 1009.6
20260507052819 64 338 5.2 9.6 0.00 0.04 0.00 89 1009.3
20260507051818 64 315 6.1 8.7 0.00 0.04 0.00 89 1009.2
20260507050818 65 338 5.2 7.8 0.00 0.04 0.00 92 1009.6
20260507045840 65 315 1.7 2.6 0.00 0.04 0.00 92 1009.3
20260507044818 65 315 0.9 0.9 0.00 0.04 0.00 92 1009.5
20260507043820 65 0.0 0.0 0.00 0.04 0.00 93 1009.2
20260507042820 65 180 0.9 1.7 0.00 0.04 0.00 93 1009.1
20260507041818 65 0.0 0.0 0.00 0.04 0.00 93 1008.9
20260507040818 64 0.0 0.9 0.00 0.04 0.00 93 1009.0
20260507035819 64 0.0 0.0 0.00 0.04 0.04 94 1009.1
20260507034820 64 0.0 0.9 0.00 0.04 0.04 94 1009.1
20260507033819 64 0.0 0.9 0.00 0.04 0.04 94 1008.9
20260507032819 64 0.0 0.0 0.00 0.04 0.04 94 1008.8
20260507031819 64 0.0 0.0 0.00 0.04 0.04 94 1008.6
20260507030819 64 0.0 0.0 0.00 0.04 0.04 94 1008.5
20260507025819 64 0.0 0.9 0.00 0.04 0.04 94 1008.5
20260507024840 64 0.0 0.9 0.00 0.04 0.04 94 1008.7
20260507023859 64 0.0 0.9 0.00 0.04 0.04 94 1009.0
20260507022819 63 0.0 0.0 0.00 0.04 0.04 94 1009.0
20260507021819 63 0.0 0.0 0.00 0.04 0.04 93 1009.0
20260507020819 63 0.0 0.0 0.00 0.04 0.04 93 1009.0
20260507015819 63 0.0 0.0 0.00 0.04 0.04 92 1009.1
20260507014819 64 0.0 0.0 0.00 0.04 0.04 92 1009.3
20260507013819 64 0.0 0.0 0.00 0.04 0.04 91 1009.2
20260507012819 64 0.0 0.0 0.00 0.04 0.04 90 1009.6
20260507011839 65 0.0 0.0 0.00 0.04 0.04 90 1009.2
20260507010819 65 0.0 0.0 0.00 0.04 0.04 89 1009.1
20260507005819 66 0.0 0.0 0.00 0.04 0.04 88 1009.1
20260507004819 66 0.0 0.0 0.00 0.04 0.04 88 1009.0
20260507003819 66 0.0 0.9 0.00 0.04 0.04 87 1009.0
20260507002819 67 0.0 0.9 0.00 0.04 0.04 86 1008.8
20260507001819 67 0.0 0.0 0.00 0.04 0.04 86 1008.8
20260507000819 67 0.0 0.0 0.00 0.04 0.04 85 1008.8
20260506235839 68 0.0 0.0 0.00 0.04 0.04 85 1008.7
20260506234819 68 0.0 0.0 0.00 0.04 0.04 84 1008.5
20260506233819 68 0.0 0.9 0.00 0.04 0.04 84 1008.4
20260506232819 68 158 0.9 1.7 0.00 0.04 0.04 83 1008.4
20260506231819 69 158 0.9 1.7 0.00 0.04 0.04 83 1008.4
20260506230819 69 180 0.9 1.7 0.00 0.04 0.04 82 1008.3
20260506225819 69 180 2.6 3.5 0.00 0.04 0.04 82 1008.3
20260506224819 69 180 1.7 2.6 0.00 0.04 0.04 82 1008.5
20260506223819 69 203 1.7 2.6 0.00 0.04 0.04 81 1008.5
20260506222819 69 180 2.6 5.2 0.00 0.04 0.04 81 1008.5
20260506221819 69 203 1.7 4.3 0.00 0.04 0.04 81 1008.5
20260506220819 69 180 5.2 10.4 0.00 0.04 0.04 81 1008.5
20260506215818 69 180 0.9 1.7 0.00 0.04 0.04 81 1008.6
20260506214819 69 158 2.6 4.3 0.00 0.04 0.04 81 1008.7
20260506213819 69 180 2.6 8.7 0.00 0.04 0.04 80 1008.4
20260506212819 69 203 4.3 7.0 0.00 0.04 0.04 81 1008.3
20260506211839 69 180 4.3 10.4 0.00 0.04 0.04 81 1008.3
20260506210819 69 203 5.2 7.8 0.00 0.04 0.04 81 1008.2
20260506205819 69 158 2.6 5.2 0.00 0.04 0.04 81 1007.9
20260506204819 69 180 3.5 5.2 0.00 0.04 0.04 81 1008.0
20260506203839 69 158 5.2 12.2 0.00 0.04 0.04 82 1008.1
20260506202819 69 203 3.5 8.7 0.00 0.04 0.04 82 1008.1
20260506201818 69 158 6.1 12.2 0.00 0.04 0.04 82 1008.1
20260506200819 69 180 4.3 7.8 0.00 0.04 0.04 81 1008.3
20260506195819 69 180 7.0 14.8 0.00 0.04 0.04 80 1008.3
20260506194818 69 180 5.2 9.6 0.00 0.04 0.04 80 1008.5
20260506193819 69 158 5.2 7.0 0.00 0.04 0.04 80 1008.6
20260506192818 69 158 5.2 9.6 0.00 0.04 0.04 80 1008.7
20260506191839 69 180 2.6 4.3 0.00 0.04 0.04 81 1008.9
20260506190818 69 203 5.2 8.7 0.00 0.04 0.04 80 1008.9
20260506185819 69 203 3.5 7.0 0.00 0.04 0.04 81 1008.8
20260506184818 68 180 7.0 9.6 0.00 0.04 0.04 80 1009.0
20260506183818 68 180 6.1 13.0 0.00 0.04 0.04 81 1009.2
20260506182840 68 180 5.2 7.0 0.00 0.04 0.04 81 1009.5
20260506181818 68 180 3.5 6.1 0.00 0.04 0.04 83 1009.5
20260506180820 68 158 7.8 14.8 0.00 0.04 0.04 84 1009.5
20260506175818 68 180 3.5 8.7 0.00 0.04 0.04 84 1009.7
20260506174820 67 135 4.3 7.8 0.00 0.04 0.04 85 1009.9
20260506173819 66 180 4.3 7.8 0.00 0.04 0.04 86 1010.0
20260506172818 66 203 3.5 7.0 0.00 0.04 0.04 87 1009.9
20260506171820 65 180 6.1 11.3 0.01 0.04 0.04 88 1009.8
20260506170838 64 180 2.6 7.0 0.01 0.04 0.04 89 1009.9
20260506165838 64 180 6.1 16.5 0.04 0.04 0.04 89 1010.1
20260506164820 65 203 3.5 7.8 0.04 0.04 0.04 89 1010.1
20260506163818 65 180 4.3 10.4 0.04 0.04 0.04 92 1010.2
20260506162838 64 180 3.5 6.1 0.04 0.04 0.04 91 1010.2
20260506161820 63 180 1.7 5.2 0.03 0.03 0.03 91 1010.6
20260506160820 64 135 2.6 6.1 0.03 0.03 0.03 90 1010.6
20260506155818 64 180 3.5 7.8 0.00 0.00 0.00 89 1010.8
20260506154818 64 203 2.6 4.3 0.00 0.00 0.00 88 1011.0
20260506153818 64 180 1.7 3.5 0.00 0.00 0.00 87 1011.1
20260506152820 65 158 0.9 1.7 0.00 0.00 0.00 86 1011.1
20260506151818 65 180 1.7 3.5 0.00 0.00 0.00 84 1011.3
20260506150818 66 180 1.7 4.3 0.00 0.00 0.00 83 1011.2
20260506145819 66 180 0.9 1.7 0.00 0.00 0.00 80 1011.4
20260506144818 66 158 2.6 3.5 0.00 0.00 0.00 81 1011.3
20260506143820 67 180 1.7 2.6 0.00 0.00 0.00 79 1011.4
20260506142820 67 158 1.7 3.5 0.00 0.00 0.00 78 1011.2
20260506141820 67 180 1.7 2.6 0.00 0.00 0.00 76 1011.2
20260506140840 67 180 2.6 5.2 0.00 0.00 0.00 75 1011.4
20260506135820 67 180 6.1 8.7 0.00 0.00 0.00 74 1011.2
20260506134820 67 180 6.1 9.6 0.00 0.00 0.00 74 1011.1
20260506133819 67 180 3.5 6.1 0.00 0.00 0.00 74 1011.0
20260506132819 68 158 3.5 8.7 0.00 0.00 0.00 74 1011.1
20260506131820 68 158 3.5 7.8 0.00 0.00 0.00 74 1011.1
20260506130820 67 180 3.5 4.3 0.00 0.00 0.00 74 1011.1
20260506125820 67 203 2.6 3.5 0.00 0.00 0.00 73 1011.0
20260506124820 67 180 3.5 7.0 0.00 0.00 0.00 74 1011.0
20260506123840 67 203 3.5 7.8 0.00 0.00 0.00 73 1011.2
20260506122820 67 203 6.1 10.4 0.00 0.00 0.00 73 1011.2
20260506121820 67 180 4.3 7.0 0.00 0.00 0.00 74 1011.5
20260506120820 67 180 5.2 8.7 0.00 0.00 0.00 74 1011.5
20260506115840 66 180 3.5 5.2 0.00 0.00 0.00 75 1011.5
20260506114819 66 180 1.7 4.3 0.00 0.00 0.00 75 1011.4
20260506113820 65 180 3.5 7.0 0.00 0.00 0.00 76 1011.3
20260506112819 65 158 2.6 4.3 0.00 0.00 0.00 76 1011.3
20260506111819 65 158 1.7 4.3 0.00 0.00 0.00 77 1011.2
20260506110820 64 180 3.5 5.2 0.00 0.00 0.00 77 1011.1
20260506105819 64 180 4.3 7.0 0.00 0.00 0.00 77 1011.1
20260506104840 64 180 1.7 4.3 0.00 0.00 0.00 77 1011.0
20260506103820 64 180 2.6 5.2 0.00 0.00 0.00 78 1011.0
20260506102819 64 158 3.5 6.1 0.00 0.00 0.00 78 1011.0
20260506101819 64 180 1.7 5.2 0.00 0.00 0.00 78 1010.9
20260506100820 64 158 1.7 4.3 0.00 0.00 0.00 79 1011.2
20260506095819 64 158 5.2 9.6 0.00 0.00 0.00 79 1011.3
20260506094819 64 180 2.6 6.1 0.00 0.00 0.00 79 1011.3
20260506093820 64 158 1.7 4.3 0.00 0.00 0.00 79 1011.1
20260506092819 64 158 3.5 6.1 0.00 0.00 0.00 79 1011.0
20260506091819 64 180 4.3 7.8 0.00 0.00 0.00 79 1011.0
20260506090819 64 180 2.6 7.8 0.00 0.00 0.00 79 1010.9
20260506085839 65 180 5.2 8.7 0.00 0.00 0.00 79 1010.9
20260506084819 65 180 2.6 5.2 0.00 0.00 0.00 79 1011.0
20260506083819 65 158 2.6 5.2 0.00 0.00 0.00 79 1010.9
20260506082819 65 180 1.7 4.3 0.00 0.00 0.00 79 1011.0
20260506081819 65 180 1.7 3.5 0.00 0.00 0.00 79 1011.0
20260506080819 65 158 4.3 11.3 0.00 0.00 0.00 79 1011.0
20260506072819 66 225 1.7 2.6 0.00 0.00 0.00 79 1011.2
20260506071819 66 180 2.6 3.5 0.00 0.00 0.00 78 1011.3
20260506070839 66 203 3.5 7.8 0.00 0.00 0.00 79 1011.3